Location: Newark
(48.9000°N, 0.7000°E)
Time: 12:33:14
(UTC+00:00)

N. Korean satellite - Visible Passes

Search period start: 27 September 2020 00:00
Search period end: 07 October 2020 00:00
Orbit: 455 x 503 km, 97.2° (Epoch: 26 September)

Date Brightness Start Highest point End Pass type
(mag) Time Alt. Az. Time Alt. Az. Time Alt. Az.
27 Sep 10.0 04:29:09 10° ENE 04:31:00 13° E 04:32:50 10° ESE visible
29 Sep 8.4 05:09:12 10° NNE 05:12:36 36° E 05:15:55 10° SSE visible
30 Sep 9.7 04:43:43 10° NE 04:46:24 19° E 04:49:01 10° SE visible
02 Oct 7.4 05:24:18 10° NNE 05:27:52 56° E 05:31:21 10° S visible
03 Oct 9.0 04:58:34 10° NE 05:01:42 28° E 05:04:47 10° SSE visible
04 Oct 9.9 04:33:22 10° NE 04:35:27 15° E 04:37:29 10° SE visible
05 Oct 10.4 17:53:35 10° WSW 17:55:17 13° W 17:57:00 10° WNW visible
06 Oct 8.1 05:13:32 10° NNE 05:16:58 41° E 05:20:17 10° S visible
